STARLINK-1575, 46349

Orbit data source: Space-Track

STARLINK-1575, 46349 is a payload satellite owned by SpaceX/Seattle (US) in LEO that was launched on Thu, 03 Sep 2020 UTC via an FALCON 9 launch vehicle from the Air Force Eastern Test Range (AFETR). Payload-class satellites include a variety of spacecraft equipped with specific instruments for various scientific and technological missions. These include communications satellites like Starlink; space stations such as the ISS; scientific satellites like the Hubble; Earth observation satellites from companies like Planet Labs, Umbra, and HawkEye 360; GPS; miniature CubeSats for education and research; and military/defense satellites.

Loading next visibility...
Identifier
46349, 2020-062AA
Orbit
LEO
Country
Flag of USUS
Related business
Manufacturer
SpaceX/Seattle
Mission
Partially operational Commercial Communications
Bus & Motor
STARLINK, Unknown motor
Mass
260 kg wet, ~248 kg dry
Launch date (UTC)
2020-09-03 (5 years ago)
Launch vehicle
FALCON 9
Launch site
Air Force Eastern Test Range (AFETR)
Object type
Payload
Rocket body
Debris
Shape & HBR
Box + 1 Pan, 10.1 m
Radar Cross Section
13.562 m², Large (>1 m²)

Expand to show TLE details & history
Last TLE update: 8 hours ago

TLE from 8 hours ago
0 STARLINK-1575
1 46349U 20062AA  25299.99900492  .00110021  00000-0  25864-2 0  9997
2 46349  53.0399 192.3292 0012042  84.5713 275.6664 15.41088372285068
Epoch: 2025-10-26T23:58Z
TLE epoch observation values (Epoch: 2025-10-26T23:58:34.025Z)
Latitude
-0.00003°
Longitude
157.08026°
Altitude
442.986 km
Speed
7.648 km/s
True Right ascension
12h 49m 19s
True Declination
0° 00' 00"
Sunlit
Object was in daylight at epoch
Visualization orbit readout
Latitude
Unknown
Longitude
Unknown
Altitude
Unknown
Speed
Unknown
Apparent Right ascension
Unknown
Apparent Declination
Unknown
Sunlit
N/A
Visualization observer readout
Local Sidereal Time
03:23:51
Azimuth
Unknown
Elevation
Unknown
Doppler factor
Unknown
Orbital elements
Apogee altitude
451.387 km
Perigee altitude
434.959 km
Semi-major axis
6,821.31 km
Eccentricity
0.0012
Inclination
53.0399°
RAAN
192.3292°
Arg. of periapsis
84.5713°
True anomaly
275.52906°
Mean anomaly
275.6664°
Eccentric anomaly
275.59773°
Mean motion
3.85249 °/min
Orbital period
93.45 mins
BSTAR
0.0025864
Loading maneuver chart data...
Computing Atmospheric mass density...
Loading historical data...
Loading historical data...
Loading historical data...
Loading historical data...
Loading historical data...
Loading historical data...
Loading historical data...

Documentation

Showing up to 5 results
|